SCP
0 0 0 0 0 0 0 0 0 0 0 0 0 0 0 0 0 0 0 0 0 0 0 0 0 0 0 0 0 0 0 0 0 0 0 0 0 0 0 0 0 0 0 0
0 0 0 0 0 0 0 0 0 0 0 0 0 0 0 0 0 0 0 0 0 0 0 0 0 0 0 0 0 0 0 0 0 0 0 0 0 0 0 0 0 0 0 0
0 0 0 0 0 0 0 0 0 0 0 0 0 0 0 0 0 0 0 0 0 0 0 0 0 0 0 0 0 0 0 0 0 0 0 0 0 0 0 0 0 0 0 0
0 0 0 0 0 0 0 0 0 0 0 0 0 0 0 0 0 0 0 0 0 0 0 0 0 0 0 0 0 0 0 0 0 0 0 0 0 0 0 0 0 0 0 0
0 0 0 0 0 0 0 0 0 0 0 0 0 0 0 0 0 0 0 0 0 0 0 0 0 0 0 0 0 0 0 0 0 0 0 0 0 0 0 0 0 0 0 0
0 0 0 0 0 0 0 0 0 0 0 0 0 0 0 0 0 0 0 0 0 0 0 0 0 0 0 0 0 0 0 0 0 0 0 0 0 0 0 0 0 0 0 0
0 0 0 0 0 0 0 0 0 0 0 0 0 0 0 0 0 0 0 0 0 0 0 0 0 0 0 0 0 0 0 0 0 0 0 0 0 0 0 0 0 0 0 0
0 0 0 0 0 0 0 0 0 0 0 0 0 0 0 0 0 0 0 0 0 0 0 0 0 0 0 0 0 0 0 0 0 0 0 0 0 0 0 0 0 0 0 0
0 0 0 0 0 0 0 0 0 0 0 0 0 0 0 0 0 0 0 0 0 0 0 0 0 0 0 0 0 0 0 0 0 0 0 0 0 0 0 0 0 0 0 0
0 0 0 0 0 0 0 0 0 0 0 0 0 0 0 0 0 0 0 0 0 0 0 0 0 0 0 0 0 0 0 0 0 0 0 0 0 0 0 0 0 0 0 0
0 0 0 0 0 0 0 0 0 0 0 0 0 0 0 0 0 0 0 0 0 0 0 0 0 0 0 0 0 0 0 0 0 0 0 0 0 0 0 0 0 0 0 0
0 0 0 0 0 0 0 0 0 0 0 0 0 0 0 0 0 0 0 0 0 0 0 0 0 0 0 0 0 0 0 0 0 0 0 0 0 0 0 0 0 0 0 0
0 0 0 0 0 0 0 0 0 0 0 0 0 0 0 0 0 0 0 0 0 0 0 0 0 0 0 0 0 0 0 0 0 0 0 0 0 0 0 0 0 0 0 0
0 0 0 0 0 0 0 0 0 0 0 0 0 0 0 0 0 0 0 0 0 0 0 0 0 0 0 0 0 0 0 0 0 0 0 0 0 0 0 0 0 0 0 0
0 0 0 0 0 0 0 0 0 0 0 0 0 0 0 0 0 0 0 0 0 0 0 0 0 0 0 0 0 0 0 0 0 0 0 0 0 0 0 0 0 0 0 0
0 0 0 0 0 0 0 0 0 0 0 0 0 0 0 0 0 0 0 0 0 0 0 0 0 0 0 0 0 0 0 0 0 0 0 0 0 0 0 0 0 0 0 0
0 0 0 0 0 0 0 0 0 0 0 0 0 0 0 0 0 0 0 0 0 0 0 0 0 0 0 0 0 0 0 0 0 0 0 0 0 0 0 0 0 0 0 0
0 0 0 0 0 0 0 0 0 0 0 0 0 0 0 0 0 0 0 0 0 0 0 0 0 0 0 0 0 0 0 0 0 0 0 0 0 0 0 0 0 0 0 0
0 0 0 0 0 0 0 0 0 0 0 0 0 0 0 0 0 0 0 0 0 0 0 0 0 0 0 0 0 0 0 0 0 0 0 0 0 0 0 0 0 0 0 0
0 0 0 0 0 0 0 0 0 0 0 0 0 0 0 0 0 0 0 0 0 0 0 0 0 0 0 0 0 0 0 0 0 0 0 0 0 0 0 0 0 0 0 0
0 0 0 0 0 0 0 0 0 0 0 0 0 0 0 0 0 0 0 0 0 0 0 0 0 0 0 0 0 0 0 0 0 0 0 0 0 0 0 0 0 0 0 0
0 0 0 0 0 0 0 0 0 0 0 0 0 0 0 0 0 0 0 0 0 0 0 0 0 0 0 0 0 0 0 0 0 0 0 0 0 0 0 0 0 0 0 0
0 0 0 0 0 0 0 0 0 0 0 0 0 0 0 0 0 0 0 0 0 0 0 0 0 0 0 0 0 0 0 0 0 0 0 0 0 0 0 0 0 0 0 0
0 0 0 0 0 0 0 0 0 0 0 0 0 0 0 0 0 0 0 0 0 0 0 0 0 0 0 0 0 0 0 0 0 0 0 0 0 0 0 0 0 0 0 0
0 0 0 0 0 0 0 0 0 0 0 0 0 0 0 0 0 0 0 0 0 0 0 0 0 0 0 0 0 0 0 0 0 0 0 0 0 0 0 0 0 0 0 0
0 0 0 0 0 0 0 0 0 0 0 0 0 0 0 0 0 0 0 0 0 0 0 0 0 0 0 0 0 0 0 0 0 0 0 0 0 0 0 0 0 0 0 0
0 0 0 -0 0 0 0 0 0 0 0 0 0 0 0 0 0 0 0 0 0 0 0 0 0 0 0 0 0 0 0 0 0 0 0 0 0 0 0 0 0 0 0 0
Wind_Speed
2 2 3 4 7 9 9 7 4 2 3 7 7 5 4 4 4 4 5 5 4 3 3 3 4 4 4 4 5 5 5 6 6 6 6 7 7 7 8 9 9 8 8 8
1 2 2 4 7 9 10 11 8 5 4 1 3 4 3 3 3 4 5 5 4 3 3 3 4 4 4 4 5 5 5 5 5 6 6 6 7 7 8 8 8 8 9 8
2 3 1 8 12 13 10 8 9 10 6 3 3 3 3 2 2 4 5 5 4 4 3 4 4 3 3 4 4 5 5 5 5 6 6 7 7 8 8 8 8 9 9 9
1 1 6 4 1 7 10 10 9 6 4 4 2 2 2 2 3 5 6 5 5 4 4 4 4 3 3 4 4 4 5 5 5 6 6 6 7 8 7 7 7 7 8 8
2 4 7 4 3 3 5 6 10 9 5 2 2 1 1 3 5 6 6 6 5 5 4 4 4 3 4 4 4 5 5 5 5 5 5 6 6 6 6 6 7 7 6 7
3 3 4 2 4 2 2 3 5 8 6 4 3 1 3 5 6 6 6 5 5 5 4 4 4 4 5 4 4 4 4 4 5 5 5 5 5 5 5 5 5 5 5 5
4 4 5 2 4 3 2 1 5 5 5 4 3 2 5 6 6 6 6 6 6 5 4 4 4 4 5 4 4 3 4 4 4 4 4 4 4 4 4 4 4 4 4 3
4 5 5 5 5 3 2 4 5 5 4 3 3 4 6 6 6 7 6 6 6 5 5 4 4 5 5 4 3 3 3 4 3 3 3 3 3 2 2 3 3 2 2 2
5 5 2 5 3 3 4 3 3 3 3 3 2 3 4 5 6 7 7 7 6 6 6 4 5 5 6 5 5 4 4 4 3 3 3 3 2 1 1 1 1 1 1 2
2 3 4 5 3 3 3 3 3 2 2 2 2 3 4 5 6 7 7 7 7 7 7 6 6 6 6 6 6 5 5 4 4 3 2 2 2 1 2 2 2 2 2 1
4 4 2 4 5 5 4 4 3 2 1 0 1 2 3 4 6 7 7 7 8 7 8 8 7 6 7 7 6 5 5 4 3 3 3 3 3 3 3 3 3 2 1 1
3 2 3 3 4 5 5 4 2 1 1 1 2 3 3 4 5 6 7 7 7 8 7 8 8 7 7 7 6 6 5 4 3 3 2 3 3 2 4 3 4 4 3 2
1 3 4 6 6 5 4 3 2 1 2 3 3 3 3 3 4 5 7 8 9 8 8 8 8 8 7 6 6 6 5 5 3 3 3 2 2 3 1 1 2 1 0 1
2 2 2 3 4 4 3 2 1 2 3 3 2 2 2 3 3 5 6 7 8 7 8 8 8 8 8 7 6 6 6 5 5 3 3 3 2 2 1 1 1 2 3 3
1 2 3 4 4 3 2 1 2 3 3 2 2 3 3 3 4 5 5 5 7 7 8 8 8 8 8 8 7 6 5 4 4 3 3 3 2 2 1 1 1 1 1 2
3 3 3 3 2 2 2 2 2 3 3 4 3 4 4 4 4 3 4 6 7 8 8 8 8 8 8 8 7 6 5 8 6 4 3 3 2 2 2 2 2 2 2 2
3 3 2 1 1 1 1 2 3 4 4 5 5 4 4 3 3 3 4 5 5 6 7 8 7 8 9 9 8 6 5 6 8 4 3 3 3 3 2 2 2 2 2 3
4 4 4 3 2 2 3 3 4 5 5 5 6 4 4 3 4 4 3 4 3 4 5 6 6 8 8 8 7 5 5 5 4 4 3 3 3 3 2 2 2 3 2 3
4 4 4 4 3 3 3 4 4 5 5 5 5 5 4 3 2 2 3 4 5 5 5 6 11 9 8 9 9 5 6 6 5 4 4 5 4 3 3 3 3 3 3 3
4 4 4 4 3 3 3 4 5 5 5 5 5 4 3 2 1 1 2 4 4 3 4 7 8 7 8 9 10 5 6 6 6 5 4 4 4 4 4 4 4 4 3 3
4 4 4 3 3 3 3 4 5 5 5 5 4 4 4 3 1 1 2 3 3 3 5 9 6 6 7 8 11 6 6 6 6 5 5 5 4 4 4 4 4 4 4 4
3 3 3 3 3 3 3 3 4 5 5 5 4 4 3 3 2 2 3 2 2 4 4 4 4 8 10 11 6 6 6 6 5 5 5 5 5 5 4 4 4 4 4 4
2 2 3 3 3 4 3 3 4 5 5 5 4 4 3 3 2 2 3 2 1 5 4 4 7 11 14 9 6 6 6 6 6 5 5 5 5 4 4 4 4 4 4 4
1 2 2 3 3 3 4 4 4 4 4 4 4 4 3 3 2 1 2 3 4 5 3 6 10 13 13 5 6 6 6 6 5 5 5 4 4 4 4 4 4 4 4 5
1 1 1 2 2 2 3 4 4 4 4 3 4 3 3 2 2 3 3 3 5 5 3 5 10 11 7 5 6 6 5 5 5 5 5 4 4 4 4 4 4 4 4 4
2 2 2 2 2 2 2 2 3 3 3 3 3 3 3 2 3 3 2 3 4 4 2 2 3 6 4 5 5 5 5 5 6 5 5 5 5 5 4 4 5 4 4 4
3 3 2 2 2 2 2 2 2 3 3 3 4 3 3 3 3 3 3 3 2 2 1 2 2 3 3 4 4 5 5 4 4 4 5 5 4 4 5 5 4 4 4 4
Wind_Direction
48 45 123 190 198 198 200 208 212 246 176 177 175 170 150 141 147 145 138 129 118 100 76 65 57 45 35 28 21 17 29 34 31 31 30 29 31 35 40 42 43 42 46 46
245 209 212 240 228 213 212 221 237 265 281 260 118 119 136 151 154 157 139 131 123 111 88 73 63 46 35 33 31 31 38 40 37 40 40 38 40 43 47 48 47 49 50 51
215 163 261 251 224 213 207 201 209 225 227 191 162 169 163 151 162 148 133 130 127 116 98 84 76 62 50 46 45 44 44 45 45 48 50 47 50 52 51 50 51 53 53 55
200 127 244 238 74 190 206 216 211 217 207 188 165 122 120 143 150 138 134 136 130 118 107 97 88 86 81 69 63 57 51 49 49 55 58 56 57 57 55 56 57 57 56 58
216 245 265 211 169 168 184 221 207 213 221 209 110 74 151 108 105 118 122 120 121 118 118 115 105 103 101 87 78 71 62 53 51 59 65 65 63 60 59 64 63 60 59 60
220 254 270 94 127 141 170 241 183 181 188 175 144 204 180 136 118 116 118 123 126 126 125 123 118 114 107 96 86 77 72 69 65 67 74 74 70 68 69 73 74 74 69 66
233 249 272 127 135 142 188 158 98 107 118 126 151 152 145 140 136 136 135 135 134 135 135 131 128 122 114 109 105 100 97 93 86 82 85 86 80 77 84 86 84 79 78 72
200 226 245 141 147 184 119 90 86 88 89 95 101 117 140 151 152 150 148 152 152 148 146 143 142 137 134 139 141 134 125 115 107 101 99 96 93 91 107 119 111 106 96 75
198 211 156 162 154 113 103 101 94 100 101 111 135 166 168 168 167 167 167 168 161 157 157 162 164 159 160 167 165 160 149 138 132 126 121 126 122 112 104 105 106 106 101 94
259 233 176 174 169 142 129 123 105 100 110 148 186 193 183 181 179 177 176 173 168 167 174 180 182 179 168 167 173 169 161 154 148 141 135 120 95 57 50 39 40 58 69 69
246 256 202 183 178 158 133 115 104 94 99 228 237 222 204 200 192 184 180 175 174 181 186 182 177 176 166 168 171 167 159 156 154 149 139 112 82 59 74 68 68 75 73 57
228 227 181 147 122 113 119 116 97 68 316 279 249 245 227 217 201 186 181 177 180 187 186 177 173 173 170 172 172 165 162 166 168 162 153 147 138 100 73 107 80 69 65 46
210 49 75 102 92 83 94 86 57 327 287 285 272 252 236 229 208 189 184 184 189 190 184 176 175 175 173 172 174 171 170 171 168 165 166 166 157 157 175 186 185 181 198 339
86 110 133 127 118 94 78 48 344 303 288 279 277 272 252 237 220 202 198 192 185 182 180 178 180 179 172 168 169 172 167 171 167 169 168 165 164 159 159 177 241 259 231 242
71 75 99 97 101 99 78 18 330 316 318 311 298 277 259 246 235 222 203 181 173 178 182 181 184 180 166 166 169 171 165 167 168 157 153 152 150 151 173 206 244 268 272 262
113 95 93 98 96 76 34 352 327 321 324 314 302 288 272 256 247 224 191 174 179 190 189 186 189 177 165 167 169 170 171 171 162 156 156 159 166 182 203 221 241 258 267 260
133 155 147 140 124 41 9 351 330 318 314 307 299 292 282 264 249 228 200 187 192 194 189 189 187 169 169 173 172 170 164 169 169 160 167 173 178 192 203 213 233 246 254 263
65 77 81 75 54 15 354 344 332 322 314 309 306 290 270 250 241 231 206 182 181 190 191 184 173 168 174 177 174 166 162 164 167 173 172 175 183 190 197 214 236 250 255 273
68 67 60 53 37 7 342 336 330 321 316 313 308 298 282 267 255 226 179 180 196 210 204 183 179 175 178 183 174 165 162 163 168 173 173 193 196 193 202 215 230 240 248 252
73 63 56 46 30 10 353 343 331 323 324 322 316 315 313 304 284 216 194 210 217 214 181 180 180 180 181 183 176 168 167 169 173 176 178 185 193 200 207 216 225 234 241 248
67 58 50 34 16 14 5 346 336 332 332 334 334 329 321 313 295 225 222 246 237 185 179 189 186 182 180 181 179 172 173 175 178 180 184 191 198 203 208 217 228 236 240 246
56 47 37 21 9 5 2 356 347 341 345 347 345 341 335 328 314 284 252 250 234 197 190 192 188 189 187 182 179 175 177 179 182 182 185 192 198 206 212 218 225 235 240 245
41 30 23 12 356 341 352 5 354 347 344 341 339 337 329 312 294 281 288 277 233 223 211 201 201 198 194 184 178 180 182 184 187 188 190 194 200 205 210 218 224 231 239 245
27 18 5 349 340 344 347 342 336 328 324 322 327 331 327 321 312 290 288 290 271 252 227 216 210 206 197 184 179 182 186 189 190 188 189 193 198 202 209 217 226 232 239 249
276 294 303 321 328 322 320 323 325 326 330 327 327 332 332 318 299 301 298 289 283 274 242 224 218 211 197 177 183 187 188 192 193 188 190 193 198 205 213 218 225 233 240 247
235 256 263 261 264 285 303 312 312 315 322 322 322 321 319 313 306 303 298 291 288 279 255 219 215 210 189 180 186 187 188 199 209 200 193 195 202 207 215 222 229 233 241 248
237 245 255 269 262 254 271 284 291 301 309 310 310 310 313 312 309 307 304 297 293 278 245 220 208 196 184 180 183 186 188 191 193 192 191 196 202 210 216 221 227 235 243 251